www.pogodaiklimat.ru

Погода и климат >> Архив погоды >> Норвегия >> Маяк Ytteroyane


ПОГОДА на Маяке Ytteroyane

  • Прогноз погоды на Маяке Ytteroyane
  • Монитор погоды на Маяке Ytteroyane

АРХИВ ПОГОДЫ на Маяке Ytteroyane

Время (UTC), дата Ветер
(напр.,м/с)
 
Видим.   Явления Облачность Т
(С)
Тd
(С)
f
(%)
Тe
(С)
Тes
(С)
Комфортность P
(гПа)
Po
(гПа)
Тmin
(С)
Tmax
(С)
R
(мм)
R24
(мм)
S
(см)
01 20.03 ЮЗ 7
{15}
н/о н/о +6.6 +3.8 82 +2 +2 1011.9 1008.8
02 20.03 З 9
{12}
н/о н/о +7.3 +3.7 78 +2 +2 1012.0 1008.9
03 20.03 ЮЗ 9
{15}
н/о н/о +5.7 +2.2 78 -0 -0 1012.6 1009.5
04 20.03 З 8
{17}
н/о н/о +4.9 +2.6 85 -1 -1 1012.8 1009.7
05 20.03 ЮЗ 9
{12}
н/о н/о +6.5 +3.0 78 +1 +1 1013.2 1010.1
06 20.03 ЮЗ 9
{17}
н/о н/о +6.4 +3.9 84 +1 +1 1013.9 1010.8 +4.1 +7.4
07 20.03 ЮЗ 7
{13}
н/о н/о +6.5 +3.1 79 +2 +2 1015.0 1011.9
08 20.03 ЮЗ 9
{12}
н/о н/о +6.6 +3.8 82 +1 +1 1015.6 1012.5
09 20.03 ЮЗ 8
{10}
н/о н/о +7.0 +3.8 80 +2 +2 1016.4 1013.3
10 20.03 ЮЗ 8
{10}
н/о н/о +7.3 +3.6 77 +2 +2 1017.4 1014.3
11 20.03 ЮЗ 9
{13}
н/о н/о +7.2 +3.3 76 +2 +2 1017.9 1014.8
12 20.03 ЮЗ 7
{13}
н/о н/о +7.1 +3.2 76 +2 +2 1018.8 1015.7
13 20.03 ЮЗ 7
{10}
н/о н/о +6.9 +3.9 81 +2 +2 1019.0 1015.9
14 20.03 ЮЗ 7
{8}
н/о н/о +6.8 +4.0 82 +2 +2 1019.4 1016.3
15 20.03 Ю 7
{8}
н/о н/о +6.8 +4.0 82 +2 +2 1019.3 1016.2
16 20.03 Ю 8
{10}
н/о н/о +6.7 +4.7 87 +1 +1 1018.9 1015.8
17 20.03 Ю 8
{11}
н/о н/о +6.7 +5.0 89 +1 +1 1018.3 1015.2
18 20.03 Ю 10
{12}
н/о н/о +6.4 +4.7 89 0 0 1017.1 1014.0 +6.3 +7.4
19 20.03 Ю 10
{13}
н/о н/о +6.4 +4.9 90 0 0 1016.4 1013.3
20 20.03 Ю 13
{17}
н/о н/о +6.2 +3.7 84 -1 -1 1015.7 1012.6
21 20.03 Ю 15
{20}
н/о н/о +5.7 +3.7 87 -2 -2 1014.3 1011.2
22 20.03 Ю 17
{22}
н/о н/о +5.6 +3.6 87 -2 -2 1012.2 1009.1
23 20.03 Ю 18
{23}
н/о н/о +6.2 +4.5 89 -1 -1 1010.6 1007.5
00 21.03 Ю 17
{23}
н/о н/о +6.8 +5.6 92 -1 -1 1009.7 1006.6
01 21.03 ЮЗ 11
{20}
н/о н/о +7.5 +6.6 94 +2 +2 1010.1 1007.0
02 21.03 ЮЗ 11
{14}
н/о н/о +7.7 +6.8 94 +2 +2 1009.8 1006.7
03 21.03 ЮЗ 10
{14}
н/о н/о +7.6 +6.7 94 +2 +2 1010.3 1007.2
04 21.03 З 8
{15}
н/о н/о +7.7 +6.0 89 +3 +3 1011.6 1008.5
05 21.03 СЗ 6
{9}
н/о н/о +6.9 +5.1 88 +2 +2 1013.6 1010.5
06 21.03 З 4
{20}
н/о н/о +7.0 +4.7 85 +3 +3 1014.7 1011.6 +5.6 +7.9
07 21.03 ЮЗ 3
{5}
н/о н/о +6.7 +4.7 87 +4 +4 1015.8 1012.7
08 21.03 З 2
{8}
н/о н/о +6.3 +4.6 89 +4 +4 1016.8 1013.7
09 21.03 ЮЗ 2
{3}
н/о н/о +6.3 +4.8 90 +4 +4 1017.7 1014.6
10 21.03 СЗ 4
{7}
н/о н/о +6.1 +3.1 81 +2 +2 1018.6 1015.5
11 21.03 З 2
{4}
н/о н/о +6.2 +3.5 83 +4 +4 1019.8 1016.7
12 21.03 СЗ 6
{8}
н/о н/о +5.3 +2.7 83 0 0 1021.2 1018.0
13 21.03 С 3
{8}
н/о н/о +5.4 +2.2 80 +2 +2 1022.4 1019.2
14 21.03 С 2
{5}
н/о н/о +5.7 +1.8 76 +3 +3 1023.8 1020.6
15 21.03 З 1
{3}
н/о н/о +6.3 +1.5 71 +5 +5 1023.8 1020.7
17 21.03 Ю 3
{4}
н/о н/о +6.2 +1.7 73 +3 +3 1025.5 1022.3
18 21.03 Ю 4
{8}
н/о н/о +5.6 +1.7 76 +2 +2 1025.2 1022.0 +5.1 +7.0
19 21.03 Ю 6
{8}
н/о н/о +5.6 +2.3 79 +1 +1 1026.1 1022.9
20 21.03 Ю 6
{9}
н/о н/о +5.9 +2.9 81 +1 +1 1027.2 1024.0
21 21.03 Ю 6
{8}
н/о н/о +6.0 +3.3 83 +1 +1 1027.4 1024.2
22 21.03 Ю 8
{9}
н/о н/о +6.1 +3.3 82 +1 +1 1027.0 1023.8
23 21.03 Ю 10
{12}
н/о н/о +5.8 +3.7 86 -0 -0 1026.8 1023.6
01 22.03 Ю 11
{14}
н/о н/о +5.7 +3.1 83 -1 -1 1025.6 1022.4
02 22.03 Ю 10
{13}
н/о н/о +5.7 +2.4 79 -0 -0 1024.9 1021.7
03 22.03 Ю 10
{13}
н/о н/о +6.0 +2.7 79 0 0 1025.2 1022.0
04 22.03 Ю 15
{18}
н/о н/о +5.9 +2.4 78 -1 -1 1022.3 1019.2
05 22.03 Ю 15
{20}
н/о н/о +6.1 +1.5 72 -1 -1 1020.7 1017.6
06 22.03 ЮВ 14
{20}
н/о н/о +6.4 +0.5 66 -0 -0 1019.2 1016.1 +5.5 +6.4
07 22.03 Ю 18
{22}
н/о н/о +6.1 -0.6 62 -1 -1 1017.8 1014.7
08 22.03 ЮВ 18
{23}
н/о н/о +6.6 -0.1 62 -0 -0 1016.3 1013.2
09 22.03 Ю 20
{27}
н/о н/о +7.6 -0.6 56 +1 +1 1015.2 1012.1
10 22.03 Ю 21
{28}
н/о н/о +7.7 +1.3 64 +1 +1 1012.8 1009.7
11 22.03 Ю 21
{27}
н/о н/о +7.7 +3.0 72 +1 +1 1012.1 1009.0
12 22.03 Ю 20
{28}
н/о н/о +6.9 +4.6 85 -1 -1 1011.5 1008.4
13 22.03 Ю 22
{27}
н/о н/о +7.0 +5.3 89 -1 -1 1009.8 1006.7
14 22.03 Ю 22
{28}
н/о н/о +7.1 +5.4 89 -1 -1 1009.1 1006.0
15 22.03 Ю 22
{28}
н/о н/о +7.2 +5.5 89 -1 -1 1007.9 1004.8
16 22.03 Ю 23
{28}
н/о н/о +6.9 +5.5 91 -1 -1 1007.1 1004.0
17 22.03 Ю 20
{27}
н/о н/о +6.8 +5.6 92 -1 -1 1006.9 1003.8
18 22.03 Ю 16
{28}
н/о н/о +7.0 +5.8 92 0 0 1006.8 1003.7 +5.9 +8.0
19 22.03 Ю 14
{19}
н/о н/о +7.1 +5.7 91 +1 +1 1006.7 1003.6
20 22.03 Ю 14
{18}
н/о н/о +7.2 +5.8 91 +1 +1 1006.5 1003.4
21 22.03 ЮЗ 12
{18}
н/о н/о +7.6 +4.2 79 +2 +2 1006.4 1003.3
22 22.03 ЮЗ 14
{19}
н/о н/о +7.5 +2.4 70 +1 +1 1006.5 1003.4
23 22.03 ЮЗ 12
{18}
н/о н/о +7.2 +2.9 74 +1 +1 1006.2 1003.1
00 23.03 ЮЗ 16
{25}
н/о н/о +5.1 +1.4 77 -3 -3 1006.3 1003.2
01 23.03 ЮЗ 15
{21}
н/о н/о +6.5 +1.4 70 -0 -0 1006.1 1003.0
02 23.03 ЮЗ 17
{23}
н/о н/о +5.6 +1.9 77 -2 -2 1006.4 1003.3
03 23.03 ЮЗ 17
{22}
н/о н/о +5.4 +0.8 72 -2 -2 1006.8 1003.7
04 23.03 З 12
{21}
н/о н/о +5.9 +1.3 72 -1 -1 1006.7 1003.6
05 23.03 ЮЗ 15
{25}
н/о н/о +5.0 +0.4 72 -2 -2 1006.8 1003.7
06 23.03 ЮЗ 15
{25}
н/о н/о +5.6 +0.6 70 -1 -1 1007.1 1004.0 +4.4 +7.7
07 23.03 З 12
{22}
н/о н/о +5.0 +2.5 84 -2 -2 1007.3 1004.2
08 23.03 З 14
{25}
н/о н/о +5.7 +0.1 67 -1 -1 1007.3 1004.2
09 23.03 З 16
{23}
н/о н/о +5.5 +0.3 69 -2 -2 1007.8 1004.7
10 23.03 З 13
{24}
н/о н/о +4.8 +1.1 77 -2 -2 1008.6 1005.5
11 23.03 З 15
{27}
н/о н/о +4.5 +0.5 75 -3 -3 1008.5 1005.4
12 23.03 З 14
{27}
н/о н/о +4.7 +1.2 78 -3 -3 1009.3 1006.2
13 23.03 З 14
{22}
н/о н/о +5.8 +1.0 71 -1 -1 1010.1 1007.0
14 23.03 З 14
{27}
н/о н/о +4.4 +0.9 78 -3 -3 1011.3 1008.2
15 23.03 З 18
{26}
н/о н/о +5.2 -0.6 66 -3 -3 1011.0 1007.9
16 23.03 З 20
{27}
н/о н/о +3.6 +0.7 81 -5 -5 1012.4 1009.3
17 23.03 З 15
{25}
н/о н/о +5.6 +1.4 74 -2 -2 1014.3 1011.2
18 23.03 З 12
{27}
н/о н/о +4.4 +1.9 84 -3 -3 1015.6 1012.5 +3.0 +6.0
19 23.03 З 10
{23}
н/о н/о +4.3 +0.6 77 -2 -2 1016.7 1013.6
20 23.03 З 11
{21}
н/о н/о +5.1 +0.7 73 -1 -1 1017.2 1014.1
21 23.03 З 8
{13}
н/о н/о +5.9 +1.6 74 +1 +1 1017.9 1014.8
22 23.03 З 7
{12}
н/о н/о +6.6 +2.1 73 +2 +2 1017.9 1014.8
23 23.03 З 6
{15}
н/о н/о +5.8 +3.0 82 +1 +1 1017.6 1014.5
00 24.03 ЮЗ 9
{23}
н/о н/о +5.7 +2.4 79 -0 -0 1016.7 1013.6
01 24.03 ЮЗ 8
{13}
н/о н/о +6.0 +3.3 83 +1 +1 1016.1 1013.0
02 24.03 З 9
{13}
н/о н/о +5.2 +2.1 80 -1 -1 1015.0 1011.9
03 24.03 ЮЗ 10
{19}
н/о н/о +6.3 +3.3 81 0 0 1014.4 1011.3
04 24.03 ЮЗ 10
{17}
н/о н/о +6.0 +3.2 82 0 0 1013.7 1010.6
05 24.03 ЮЗ 10
{14}
н/о н/о +5.7 +2.9 82 -0 -0 1013.2 1010.1
06 24.03 ЮЗ 13
{19}
н/о н/о +5.8 +3.0 82 -1 -1 1012.1 1009.0 +3.6 +6.6
07 24.03 ЮЗ 11
{16}
н/о н/о +5.8 +2.8 81 -1 -1 1011.7 1008.6
08 24.03 ЮЗ 11
{14}
н/о н/о +6.2 +3.0 80 0 0 1010.8 1007.7
09 24.03 ЮЗ 11
{16}
н/о н/о +6.2 +3.5 83 0 0 1010.2 1007.1
10 24.03 ЮЗ 11
{17}
н/о н/о +5.2 +2.7 84 -1 -1 1009.6 1006.5
11 24.03 ЮЗ 11
{15}
н/о н/о +5.5 +3.0 84 -1 -1 1008.5 1005.4
12 24.03 ЮЗ 9
{17}
н/о н/о +5.1 +3.1 87 -1 -1 1007.5 1004.4
13 24.03 Ю 13
{17}
н/о н/о +5.4 +3.1 85 -2 -2 1006.7 1003.6
14 24.03 Ю 11
{16}
н/о н/о +4.9 +2.6 85 -2 -2 1005.8 1002.7
15 24.03 ЮЗ 7
{12}
н/о н/о +4.7 +2.4 85 -1 -1 1004.9 1001.8
16 24.03 З 4
{12}
н/о н/о +5.1 +3.0 86 +1 +1 1004.3 1001.2
17 24.03 ЮЗ 4
{8}
н/о н/о +5.3 +3.0 85 +1 +1 1004.2 1001.1
18 24.03 З 3
{17}
н/о н/о +5.1 +2.6 84 +2 +2 1004.3 1001.2 +4.5 +6.4
19 24.03 Ю 2
{4}
н/о н/о +5.4 +2.9 84 +3 +3 1004.6 1001.5
20 24.03 В 4
{6}
н/о н/о +4.7 +2.4 85 0 0 1005.3 1002.2
21 24.03 В 5
{8}
н/о н/о +4.3 +2.3 87 -1 -1 1006.1 1003.0
22 24.03 ЮВ 4
{7}
н/о н/о +4.3 +2.5 88 -0 -0 1007.2 1004.1
23 24.03 В 2
{5}
н/о н/о +4.3 +2.3 87 +2 +2 1008.4 1005.3
00 25.03 С 1
{8}
н/о н/о +4.3 +2.3 87 +3 +3 1009.6 1006.5
01 25.03 С 3
{4}
н/о н/о +4.8 +2.7 86 +1 +1 1010.9 1007.8
02 25.03 С 5
{8}
н/о н/о +5.0 +2.7 85 0 0 1012.1 1009.0
03 25.03 С 3
{8}
н/о н/о +4.5 +2.2 85 +1 +1 1013.3 1010.2
04 25.03 СВ 3
{10}
н/о н/о +4.4 +1.1 79 +1 +1 1014.7 1011.6
05 25.03 С 5
{12}
н/о н/о +4.5 -0.5 70 -0 -0 1015.8 1012.7
06 25.03 С 6
{12}
н/о н/о +4.2 -1.8 65 -1 -1 1017.1 1014.0 +4.1 +5.4
07 25.03
{11}
н/о н/о +4.4 -2.6 60 1018.9 1015.7
08 25.03 С 9
{13}
н/о н/о +4.7 -3.3 56 -1 -1 1019.4 1016.2
09 25.03
{14}
н/о н/о +5.0 -3.2 55 1020.7 1017.5
10 25.03 С 6
{10}
н/о н/о +5.3 -2.7 56 +1 +1 1021.4 1018.2
11 25.03 С 6
{9}
н/о н/о +5.4 -2.9 55 +1 +1 1022.0 1018.8
12 25.03 СЗ 8
{14}
н/о н/о +5.5 -1.6 60 0 0 1022.5 1019.3
13 25.03 СЗ 2
{9}
н/о н/о +5.5 -2.5 56 +4 +4 1022.2 1019.0
14 25.03 З 3
{4}
н/о н/о +6.0 -0.9 61 +3 +3 1022.0 1018.9
15 25.03 З 7
{11}
н/о н/о +5.6 +0.6 70 +1 +1 1022.0 1018.9
16 25.03 СЗ 12
{14}
н/о н/о +4.0 +1.7 85 -3 -3 1021.4 1018.2
17 25.03 СЗ 12
{15}
н/о н/о +5.5 -0.3 66 -1 -1 1021.5 1018.4
18 25.03 СЗ 13
{15}
н/о н/о +5.0 -1.4 63 -2 -2 1022.1 1018.9 +4.0 +6.2
19 25.03 СЗ 12
{15}
н/о н/о +5.0 -1.6 62 -2 -2 1022.2 1019.0
20 25.03 С 12
{15}
н/о н/о +4.8 -2.0 61 -2 -2 1022.4 1019.2
21 25.03 СЗ 11
{15}
н/о н/о +4.6 -2.5 60 -2 -2 1023.0 1019.8
22 25.03 СЗ 9
{12}
н/о н/о +4.5 -1.9 63 -1 -1 1023.4 1020.2
23 25.03 СЗ 8
{11}
н/о н/о +4.3 -2.1 63 -1 -1 1023.1 1019.9
00 26.03 С 4
{15}
н/о н/о +3.9 -1.8 66 -0 -0 1022.9 1019.7
01 26.03 С 3
{7}
н/о н/о +3.9 -1.8 66 +1 +1 1023.0 1019.8
02 26.03 С 3
{5}
н/о н/о +4.1 -1.7 66 +1 +1 1022.7 1019.5
03 26.03 С 1
{4}
н/о н/о +4.0 -1.7 66 +3 +3 1022.5 1019.3
04 26.03 З 1
{3}
н/о н/о +3.5 -1.4 70 +2 +2 1021.9 1018.7
05 26.03 Ю 3
{4}
н/о н/о +3.5 -0.9 73 -0 -0 1021.4 1018.2
06 26.03 Ю 5
{7}
н/о н/о +3.5 -0.3 76 -1 -1 1020.9 1017.7 +3.3 +5.2
07 26.03 Ю 8
{10}
н/о н/о +3.5 +0.4 80 -3 -3 1020.2 1017.0
08 26.03 Ю 10
{12}
н/о н/о +3.1 +0.5 83 -4 -4 1019.5 1016.3
09 26.03 ЮВ 10
{12}
н/о н/о +2.6 +0.7 87 -5 -5 1019.6 1016.4
10 26.03 ЮВ 10
{12}
н/о н/о +2.1 +0.6 90 -6 -6 1018.9 1015.7
11 26.03 ЮВ 11
{14}
н/о н/о +2.9 +1.9 93 -5 -5 1018.1 1014.9
12 26.03 ЮВ 12
{15}
н/о н/о +3.6 +2.1 90 -4 -4 1017.2 1014.0
13 26.03 Ю 13
{16}
н/о н/о +4.2 +2.9 91 -3 -3 1016.4 1013.3
14 26.03 Ю 13
{16}
н/о н/о +4.5 +3.3 92 -3 -3 1015.7 1012.6
15 26.03 Ю 12
{16}
н/о н/о +5.2 +4.2 93 -2 -2 1015.1 1012.0
16 26.03 Ю 9
{16}
н/о н/о +6.0 +5.1 94 0 0 1015.6 1012.5
17 26.03 Ю 3
{10}
н/о н/о +6.8 +5.9 94 +4 +4 1015.7 1012.6
18 26.03 В 4
{16}
н/о н/о +5.2 +4.3 94 +1 +1 1016.4 1013.3 +1.9 +7.1
21 26.03 ЮВ 1
{5}
н/о н/о +5.9 +5.2 95 +5 +5 1018.4 1015.3
22 26.03 Ю 1
{1}
н/о н/о +5.7 +5.0 95 +4 +4 1019.2 1016.1
23 26.03 З 3
{8}
н/о н/о +6.0 +5.3 95 +3 +3 1019.5 1016.4

 

Местоположение метеостанции Маяк Ytteroyane (Норвегия): широта 61.57 долгота 4.68 высота над уровнем моря 26 м.

В архиве по умолчанию представлена погода на Маяке Ytteroyane за последнюю неделю. Архивные данные за месяц целиком и за предыдущие месяцы, начиная с января 2011 года, Вы можете получить, выбрав интересующий диапазон дат из раскрывающегося списка и нажав кнопку "Ввод!".


*Определитесь, кто Вы:
робот инопланетянин человек

Внимание! Время в таблицах - всемирное. Для получения местного времени необходимо прибавить поправку, которая равна 1 ч.

Смотрите также архив погоды в соседних городах и на ближайших метеорологических станциях:

Погода в Флоро аэропорту (Норвегия) (19 км)
Погода в Фурунесете (Норвегия) (37 км)
Погода на Маяке Krakenes (Норвегия) (54 км)
Погода во Флурё аэропорту (Норвегия) (61 км)
Погода во Флурё (Норвегия) (67 км)
Погода в Такле (Норвегия) (71 км)
Погода в Фиске (Норвегия) (76 км)
Погода в Сандан аэропорту (Норвегия) (80 км)
Погода в Берген аэропорту (Норвегия) (85 км)
Погода в Федье (Норвегия) (88 км)

Пояснения к столбцам:

Ветер - указаны скорость ветра в м/с - средняя за 10 мин, порывы в срок и между сроками (в фигурных скобках) и направление, откуда дует ветер: С - северный, СВ - северо-восточный, В - восточный, ЮВ - юго-восточный, Ю - южный, ЮЗ - юго-западный, З - западный, СЗ - северо-западный.
Видимость - горизонтальная дальность видимости в метрах или километрах. При видимости от 1 до 10 км при отсутствии осадков обычно наблюдается дымка, при ухудшении видимости до 1 км и менее - туман. В сухую погоду видимость может ухудшаться дымом, пылью или мглою.
Явления - указаны атмосферные явления, наблюдавшиеся в срок или в последний час перед сроком; фигурными скобками обозначены явления, наблюдавшиеся между сроками (за 1-3 часа до срока); квадратными скобками обозначены град или гололедные отложения с указанием их диаметра в мм.
Облачность - указаны через наклонную черту общая и нижняя облачность в баллах и высота нижней границы облаков в метрах; квадратными скобками обозначены формы облаков: Ci - перистые, Cs - перисто-слоистые, Cc - перисто-кучевые, Ac - высококучевые, As - высокослоистые, Sc - слоисто-кучевые, Ns - слоисто-дождевые, Cu - кучевые, Cb - кучево-дождевые. Подробнее классификацию облаков см. в Атласе облаков (PDF).
T - Температура воздуха - температура, измеренная на высоте 2 м над землей.
Td - Температура точки росы - температура, при понижении до которой содержащийся в воздухе водяной пар достигнет насыщения.
f - Относительная влажность воздуха - влажноcть воздуха, измеренная на высоте 2 м над землей.
Te - Эффективная температура - температура, которую ощущает одетый по сезону человек в тени. Характеристика душности погоды. При расчете учитывается влияние влажности воздуха и скорости ветра на теплоощущения человека.
Tes - Эффективная температура на солнце - температура, которую ощущает человек, с поправкой на солнечный нагрев. Характеристика знойности погоды. Зависит от высоты солнца над горизонтом, облачности и скорости ветра. Ночью, в пасмурную погоду, а также при ветре 12 м/с и более поправка равна нулю.
P - Атмосферное давление - приведенное к уровню моря атмосферное давление.
Po - Атмосферное давление - измеренное на уровне метеостанции атмосферное давление.
Tmin - Минимальная температура - минимум температуры воздуха на высоте 2 м над землей.
Tmax - Максимальная температура - максимум температуры воздуха на высоте 2 м над землей.
R - Количество осадков - Количество выпавших осадков за период времени, мм. При наведении курсора мыши на число - период времени, за который выпало указанное количество осадков.
R24 - Количество осадков - Количество выпавших осадков за 24 часа, мм.
S - Снежный покров - Высота снежного покрова, см. При наведении курсора мыши на число - состояние снежного покрова и степень покрытия местности в баллах.